Regional Weather Roundup
Issued by NWS Green Bay, WI

Home | Current Version | Previous Version | Graphics & Text | Print | Product List | Glossary Off
Versions: 1 2 3 4 5 6 7 8 9 10 11 12 13 14 15 16 17 18 19 20 21 22 23 24 25 26 27 28 29 30 31 32 33 34 35 36 37 38 39 40 41 42 43 44 45 46 47 48 49 50

000
ASUS43 KGRB 062159
RWRGRB

NORTH-CENTRAL AND NORTHEAST WISCONSIN REGIONAL WEATHER ROUNDUP
NATIONAL WEATHER SERVICE GREEN BAY WI
500 PM CDT WED MAY 06 2015

WIZ005-009-010>012-018-019-062300-
NORTH CENTRAL WISCONSIN

CITY           SKY/WX    TMP DP  RH WIND       PRES   REMARKS
IRONWOOD       CLOUDY    72  57  60 SE10G16   29.99F
MANITOWISH WTR NOT AVBL
ARBOR VITAE    NOT AVBL
EAGLE RIVER    NOT AVBL
LAND O LAKES   NOT AVBL
RHINELANDER    CLOUDY    70  57  63 SE10      30.08F
PHILLIPS       NOT AVBL
ANTIGO         NOT AVBL
TOMAHAWK       NOT AVBL
MERRILL        NOT AVBL
$$

WIZ013-073-062300-
NORTHEAST WISCONSIN

CITY           SKY/WX    TMP DP  RH WIND       PRES   REMARKS
IRON MOUNTAIN  PTSUNNY   70  51  51 SE14      30.09F
MARINETTE      PTSUNNY   61  46  59 E10       30.12F
$$

WIZ017-030-035>037-045-062300-
CENTRAL WISCONSIN

CITY           SKY/WX    TMP DP  RH WIND       PRES   REMARKS
MEDFORD        NOT AVBL
WAUSAU         MOSUNNY   72  58  61 E13       30.04F
MOSINEE        SUNNY     72  59  64 SE10G16   30.06F
MARSHFIELD     PTSUNNY   76  59  55 SE16      30.02F
WISC RAPIDS    MOSUNNY   77  55  46 S13       30.04F
STEVENS POINT  NOT AVBL
WAUPACA        NOT AVBL
SHAWANO        NOT AVBL
CLINTONVILLE   NOT AVBL
$$

WIZ038-039-048-051-062300-
FOX VALLEY

CITY           SKY/WX    TMP DP  RH WIND       PRES   REMARKS
NWS GREEN BAY  MOSUNNY   69  57  65 SE8       30.11F
APPLETON       MOSUNNY   66  55  68 SE12      30.10F
OSHKOSH        SUNNY     66  57  72 E8        30.08F
FOND DU LAC    SUNNY     71  59  65 E12       30.08F
$$

WIZ022-050-052-062300-
EAST CENTRAL WISCONSIN

CITY           SKY/WX    TMP DP  RH WIND       PRES   REMARKS
STURGEON BAY   MOSUNNY   61  50  67 SE7       30.16F
MANITOWOC      NOT AVBL
SHEBOYGAN      MOSUNNY   63  55  75 SE8       30.12F
$$

LMZ563-521-522-541>543-062300-
LAKESHORE

STATION/POSITION TIME  TEMP    WIND        PRES    VSBY  WAVE
                       AIR SEA DIR/SP/G                  HT/PER
                 (UTC) (F)     (DEG/KT/KT) (MB)    (MI)  (FT/S)
SHEBOYGAN LKSHOR 2100   47     100/  4/  5 1021.5F
KEWAUNEE LKSHORE 2100   45      60/  2/  5 1020.0F
NORTHPORT PIER   2100   47     140/  4/  4 1021.7F
SISTER BAY LKSHO 2100   62     160/ 10/ 12   N/A
STURGEON BAY CG  2100   48 46   90/  4     1022.6      6   0
CHAMBERS ISLAND  2100   60     300/  1/  8 1021.7S
MENOMINEE LKSHOR 2100   52      20/  5/  6 1021.1F
$$


USA.gov is the U.S. government's official web portal to all federal, state and local government web resources and services.